Cecil Field, FL

2:22 PM EDT on March 24, 2017 (GMT -0400)
Cecil

Weather History for KVQQ - July, 2013

Change the Weather History Date:

Wednesday, July 31, 2013

  Actual Average (KNIP) Record (KNIP)
Temperature  
Mean Temperature 78 °F -  
Max Temperature 86 °F 88 °F 102 °F (1999)
Min Temperature 71 °F 73 °F 72 °F (2000)
Cooling Degree Days 14    
Growing Degree Days 28 (Base 50)    
Moisture  
Dew Point 73 °F    
Average Humidity 97    
Maximum Humidity 100    
Minimum Humidity 74    
Precipitation  
Precipitation 0.00 in - - ()
Sea Level Pressure  
Sea Level Pressure 30.10 in    
Wind  
Wind Speed 1 mph (SE)    
Max Wind Speed 12 mph    
Max Gust Speed -    
Visibility 6 miles    
Events Rain , Thunderstorm    
Averages and records for this station are not official NWS values.
T = Trace of Precipitation, MM = Missing Value Source: NWS Daily Summary

Daily Weather History Graph

Daily Weather History Graph

Search for Another Location

Airport or City:

Trip Planner

Search our weather history database for the weather conditions in past years. The results will help you decide how hot, cold, wet, or windy it might be!

Date:

Astronomy

Jul. 31, 2013 Rise Set
Actual Time 6:45 AM EDT 8:21 PM EDT
Civil Twilight 6:19 AM EDT 8:47 PM EDT
Nautical Twilight 5:48 AM EDT 9:18 PM EDT
Astronomical Twilight 5:15 AM EDT 9:51 PM EDT
Moon 1:39 AM EDT (7/31) 3:35 PM EDT (7/31)
Length of Visible Light 14h 28m
Length of Day
13h 36m
Waning Crescent, 32% of the Moon is Illuminated
Jul 31
Waning Crescent
Aug 6
New
Aug 14
First Quarter
Aug 20
Full
Aug 28
Last Quarter

Hourly Weather History & Observations

Time (EDT) Temp. Heat Index Dew Point Humidity Pressure Visibility Wind Dir Wind Speed Gust Speed Precip Events Conditions
12:15 AM 73.4 °F - 73.4 °F 100% 30.15 in 4.0 mi Calm Calm - N/A   Clear
12:35 AM 73.4 °F - 73.4 °F 100% 30.14 in 5.0 mi Calm Calm - N/A   Clear
12:55 AM 73.4 °F - 73.4 °F 100% 30.14 in 5.0 mi Calm Calm - N/A   Clear
1:15 AM 73.4 °F - 73.4 °F 100% 30.13 in 4.0 mi Calm Calm - N/A   Clear
1:35 AM 73.4 °F - 73.4 °F 100% 30.13 in 3.0 mi Calm Calm - N/A   Clear
1:55 AM 73.4 °F - 73.4 °F 100% 30.12 in 3.0 mi Calm Calm - N/A   Clear
2:15 AM 73.4 °F - 73.4 °F 100% 30.12 in 4.0 mi Calm Calm - N/A   Clear
2:55 AM 73.4 °F - 73.4 °F 100% 30.11 in 5.0 mi Calm Calm - N/A   Partly Cloudy
3:15 AM 73.4 °F - 73.4 °F 100% 30.11 in 3.0 mi Calm Calm - N/A   Partly Cloudy
3:35 AM 73.4 °F - 73.4 °F 100% 30.10 in 3.0 mi Calm Calm - N/A   Clear
3:55 AM 73.4 °F - 73.4 °F 100% 30.10 in 2.5 mi Calm Calm - N/A   Clear
4:15 AM 71.6 °F - 71.6 °F 100% 30.10 in 3.0 mi Calm Calm - N/A   Clear
4:35 AM 71.6 °F - 71.6 °F 100% 30.09 in 2.5 mi Calm Calm - N/A   Clear
4:55 AM 71.6 °F - 71.6 °F 100% 30.09 in 3.0 mi Calm Calm - N/A   Clear
5:15 AM 71.6 °F - 71.6 °F 100% 30.09 in 3.0 mi Calm Calm - N/A   Clear
5:35 AM 71.6 °F - 71.6 °F 100% 30.09 in 3.0 mi Calm Calm - N/A   Clear
5:55 AM 71.6 °F - 71.6 °F 100% 30.10 in 2.5 mi Calm Calm - N/A   Clear
6:15 AM 71.6 °F - 71.6 °F 100% 30.11 in 3.0 mi Calm Calm - N/A   Clear
6:35 AM 71.6 °F - 71.6 °F 100% 30.11 in 2.0 mi Calm Calm - N/A   Clear
6:50 AM 71.6 °F - 71.6 °F 100% 30.12 in 5.0 mi Calm Calm - N/A   Clear
7:50 AM 73.4 °F - 73.4 °F 100% 30.12 in 5.0 mi Calm Calm - N/A   Clear
8:50 AM 80.6 °F 87.1 °F 77.0 °F 89% 30.13 in 7.0 mi Calm Calm - N/A   Clear
9:50 AM 82.4 °F 89.5 °F 75.2 °F 79% 30.13 in 10.0 mi Calm Calm - N/A   Clear
10:50 AM 84.2 °F 94.1 °F 77.0 °F 79% 30.13 in 10.0 mi Calm Calm - N/A   Clear
11:50 AM 86.0 °F 96.9 °F 77.0 °F 74% 30.13 in 10.0 mi Calm Calm - N/A   Partly Cloudy
12:50 PM 82.4 °F 88.2 °F 73.4 °F 74% 30.12 in 10.0 mi WNW 8.1 mph - N/A   Mostly Cloudy
1:50 PM 80.6 °F 85.4 °F 73.4 °F 79% 30.07 in 10.0 mi WSW 5.8 mph - N/A Thunderstorm Mostly Cloudy
2:50 PM 75.2 °F - 75.2 °F 100% 30.08 in 10.0 mi WNW 11.5 mph - N/A Thunderstorm Mostly Cloudy
3:50 PM 75.2 °F - 73.4 °F 94% 30.06 in 10.0 mi ENE 11.5 mph - N/A Thunderstorm Scattered Clouds
4:50 PM 77.0 °F - 75.2 °F 94% 30.07 in 10.0 mi East 11.5 mph - N/A Thunderstorm Scattered Clouds
5:10 PM 77.0 °F - 75.2 °F 94% 30.07 in 3.0 mi ESE 5.8 mph - N/A Rain Rain
5:50 PM 73.4 °F - 73.4 °F 100% 30.08 in 5.0 mi Variable 5.8 mph - N/A Rain Light Rain
6:50 PM 75.2 °F - 75.2 °F 100% 30.07 in 5.0 mi Calm Calm - N/A Rain Light Rain
7:50 PM 73.4 °F - 73.4 °F 100% 30.07 in 5.0 mi Calm Calm - N/A Rain Light Rain
8:15 PM 73.4 °F - 73.4 °F 100% 30.07 in 6.0 mi Calm Calm - N/A   Clear
8:35 PM 73.4 °F - 73.4 °F 100% 30.06 in 7.0 mi Calm Calm - N/A   Partly Cloudy
8:55 PM 73.4 °F - 73.4 °F 100% 30.07 in 6.0 mi Calm Calm - N/A   Mostly Cloudy
9:15 PM 73.4 °F - 73.4 °F 100% 30.07 in 6.0 mi Calm Calm - N/A   Overcast
9:35 PM 73.4 °F - 73.4 °F 100% 30.07 in 7.0 mi ESE 4.6 mph - N/A   Overcast
9:55 PM 71.6 °F - 71.6 °F 100% 30.07 in 9.0 mi SE 4.6 mph - N/A   Mostly Cloudy
10:15 PM 71.6 °F - 71.6 °F 100% 30.07 in 10.0 mi Calm Calm - N/A   Partly Cloudy
10:35 PM 71.6 °F - 71.6 °F 100% 30.07 in 10.0 mi Calm Calm - N/A   Clear
10:55 PM 71.6 °F - 71.6 °F 100% 30.07 in 10.0 mi Calm Calm - N/A   Clear
11:15 PM 71.6 °F - 71.6 °F 100% 30.07 in 10.0 mi Calm Calm - N/A   Clear
11:35 PM 71.6 °F - 71.6 °F 100% 30.06 in 10.0 mi Calm Calm - N/A   Clear
11:55 PM 71.6 °F - 71.6 °F 100% 30.06 in 10.0 mi SSE 4.6 mph - N/A   Clear